Погода в Яе-Борике

Россия / Кемеровская область (Кузбасс)     56°16′30″N   86°27′21″E
темп.,
°C
ветер,
м/с
пор.,
м/с
влажн.,
%
обл.,
%
осадки,
мм/ч
давл.,
гПа
погр.,
м
28 сентября, вт
вт2801:00+3ссв2383100 0.0 102488
04:00+3ссв1183100 0.0 102314
07:00+3с228590 0.0 102263
10:00+5ссв237569 0.1 1022343
13:00+8всв225398 0.1 10211461
16:00+8св1250100 0.1 10201284
19:00+6в2251100 0.1 102013
22:00+6в2255100 0.0 102027
29 сентября, ср
ср2901:00+5в225994 0.0 101939
04:00+1в34775 0.0 101963
07:000в378652 0.0 1018128
10:00+3в61066100 0.0 1016469
13:00+8в785344 0.0 1014972
16:00+9в784951 0.0 10131201
19:00+6в51162100 0.0 1012414
22:00+5в4874100 0.0 1012316
30 сентября, чт
чт3001:00+4в4885100 0.3 1010298
04:00+5вюв3593100 0.2 1010170
07:00+5ююв2594100 0.4 1010234
10:00+4ююз4787100 0.3 1010586
13:00+3ю4896100 0.3 1010810
16:00+2ююз51096100 0.8 1011535
19:00+2юз5997100 1.7 1011472
22:00+1зюз51097100 0.8 1011491
1 октября, пт
пт101:00+2зюз51097100 1.6 1012487
04:00+2зюз4898100 0.9 1012415
07:00+1зюз4796100 1.1 1012711
10:00+2юз4898100 0.3 1012449
13:00+2юз5891100 0.5 1012650
16:00+4юз5779100 0.4 1012948
19:00+2юз4991100 0.6 1013602
22:00+2юз4897100 0.1 1013468
2 октября, сб
сб201:00+2ююз41097100 0.3 1013526
04:00+2ююз51197100 0.4 1013576
07:00+2юз5997100 0.8 1014545
10:00+1зсз1299100 0.4 1015178
13:00+1ссв1199100 2.1 101579
16:00+1с11100100 2.6 101686
19:00+1зюз23100100 4.4 1017293
22:000сз35100100 2.3 1019168